Time,TemperatureF,DewpointF,PressureIn,WindDirection,WindDirectionDegrees,WindSpeedMPH,WindSpeedGustMPH,Humidity,HourlyPrecipIn,Conditions,Clouds,dailyrainin,SoftwareType,DateUTC
2013-08-04 00:00:00,79.2,76.6,29.94,West,277,0.0,4.0,92,0.00,,,0.00,meteohub,2013-08-04 04:00:00,
2013-08-04 00:02:00,79.2,76.6,29.94,West,277,0.0,5.0,92,0.00,,,0.00,meteohub,2013-08-04 04:02:00,
2013-08-04 00:07:00,79.0,76.5,29.94,West,277,0.0,5.0,92,0.00,,,0.00,meteohub,2013-08-04 04:07:00,
2013-08-04 00:13:00,79.0,76.5,29.93,West,277,0.0,5.0,92,0.00,,,0.00,meteohub,2013-08-04 04:13:00,
2013-08-04 00:18:00,79.0,76.5,29.93,West,277,2.0,3.0,92,0.00,,,0.00,meteohub,2013-08-04 04:18:00,
2013-08-04 00:23:00,79.0,76.5,29.93,WSW,247,2.0,6.0,92,0.00,,,0.00,meteohub,2013-08-04 04:23:00,
2013-08-04 00:27:00,79.0,76.5,29.92,WSW,250,1.0,6.0,92,0.00,,,0.00,meteohub,2013-08-04 04:27:00,
2013-08-04 00:32:00,78.8,76.3,29.92,SW,236,3.0,7.0,92,0.00,,,0.00,meteohub,2013-08-04 04:32:00,
2013-08-04 00:38:00,78.6,76.1,29.92,SW,236,0.0,7.0,92,0.00,,,0.00,meteohub,2013-08-04 04:38:00,
2013-08-04 00:42:00,78.4,75.9,29.92,SW,236,0.0,7.0,92,0.00,,,0.00,meteohub,2013-08-04 04:42:00,
2013-08-04 00:48:00,78.4,76.3,29.92,WSW,251,0.0,5.0,93,0.00,,,0.00,meteohub,2013-08-04 04:48:00,
2013-08-04 00:53:00,78.4,76.3,29.92,WSW,251,2.0,4.0,93,0.00,,,0.00,meteohub,2013-08-04 04:53:00,
2013-08-04 00:58:00,78.3,76.1,29.91,SW,223,1.0,4.0,93,0.00,,,0.00,meteohub,2013-08-04 04:58:00,
2013-08-04 01:03:00,78.3,76.1,29.91,SW,235,1.0,4.0,93,0.00,,,0.00,meteohub,2013-08-04 05:03:00,
2013-08-04 01:07:00,78.3,76.1,29.91,SW,235,0.0,4.0,93,0.00,,,0.00,meteohub,2013-08-04 05:07:00,
2013-08-04 01:13:00,78.3,76.1,29.91,SW,235,0.0,4.0,93,0.00,,,0.00,meteohub,2013-08-04 05:13:00,
2013-08-04 01:18:00,78.1,75.9,29.90,SW,235,0.0,3.0,93,0.00,,,0.00,meteohub,2013-08-04 05:18:00,
2013-08-04 01:23:00,78.1,75.9,29.90,SW,235,0.0,3.0,93,0.00,,,0.00,meteohub,2013-08-04 05:23:00,
2013-08-04 01:28:00,78.1,75.9,29.90,SW,235,0.0,3.0,93,0.00,,,0.00,meteohub,2013-08-04 05:28:00,
2013-08-04 01:32:00,78.1,75.9,29.90,SW,235,0.0,2.0,93,0.00,,,0.00,meteohub,2013-08-04 05:32:00,
2013-08-04 01:38:00,78.1,75.9,29.90,SW,235,0.0,3.0,93,0.00,,,0.00,meteohub,2013-08-04 05:38:00,
2013-08-04 01:42:00,77.9,75.7,29.90,West,269,0.0,5.0,93,0.00,,,0.00,meteohub,2013-08-04 05:42:00,
2013-08-04 01:48:00,77.9,75.7,29.90,West,269,0.0,5.0,93,0.00,,,0.00,meteohub,2013-08-04 05:48:00,
2013-08-04 01:53:00,77.7,75.6,29.90,West,269,0.0,5.0,93,0.00,,,0.00,meteohub,2013-08-04 05:53:00,
2013-08-04 01:58:00,77.7,75.6,29.90,West,269,0.0,4.0,93,0.00,,,0.00,meteohub,2013-08-04 05:58:00,
2013-08-04 02:03:00,77.5,75.4,29.90,West,269,0.0,4.0,93,0.00,,,0.00,meteohub,2013-08-04 06:03:00,
2013-08-04 02:08:00,77.4,75.2,29.89,West,269,0.0,0.0,93,0.00,,,0.00,meteohub,2013-08-04 06:08:00,
2013-08-04 02:13:00,77.2,75.0,29.89,West,269,0.0,0.0,93,0.00,,,0.00,meteohub,2013-08-04 06:13:00,
2013-08-04 02:18:00,76.6,74.5,29.89,West,269,0.0,0.0,93,0.00,,,0.00,meteohub,2013-08-04 06:18:00,
2013-08-04 02:23:00,76.5,74.7,29.89,West,269,0.0,0.0,94,0.00,,,0.00,meteohub,2013-08-04 06:23:00,
2013-08-04 02:28:00,76.6,75.0,29.88,West,269,0.0,2.0,95,0.00,,,0.00,meteohub,2013-08-04 06:28:00,
2013-08-04 02:33:00,76.8,75.2,29.88,West,269,0.0,2.0,95,0.00,,,0.00,meteohub,2013-08-04 06:33:00,
2013-08-04 02:38:00,76.6,74.8,29.88,West,269,0.0,2.0,94,0.00,,,0.00,meteohub,2013-08-04 06:38:00,
2013-08-04 02:43:00,76.5,74.8,29.88,West,269,0.0,0.0,95,0.00,,,0.00,meteohub,2013-08-04 06:43:00,
2013-08-04 02:48:00,76.6,75.0,29.88,West,269,0.0,0.0,95,0.00,,,0.00,meteohub,2013-08-04 06:48:00,
2013-08-04 02:53:00,76.6,75.0,29.87,West,269,0.0,0.0,95,0.00,,,0.00,meteohub,2013-08-04 06:53:00,
2013-08-04 02:58:00,76.5,74.8,29.88,West,269,0.0,0.0,95,0.00,,,0.00,meteohub,2013-08-04 06:58:00,
2013-08-04 03:03:00,76.3,74.7,29.88,West,269,0.0,0.0,95,0.00,,,0.00,meteohub,2013-08-04 07:03:00,
2013-08-04 03:08:00,76.3,74.7,29.88,West,269,0.0,0.0,95,0.00,,,0.00,meteohub,2013-08-04 07:08:00,
2013-08-04 03:13:00,76.3,75.0,29.87,West,269,0.0,4.0,96,0.00,,,0.00,meteohub,2013-08-04 07:13:00,
2013-08-04 03:18:00,76.3,75.0,29.87,West,269,0.0,4.0,96,0.00,,,0.00,meteohub,2013-08-04 07:18:00,
2013-08-04 03:23:00,76.5,75.2,29.87,West,269,2.0,4.0,96,0.00,,,0.00,meteohub,2013-08-04 07:23:00,
2013-08-04 03:28:00,76.3,74.7,29.87,West,269,0.0,5.0,95,0.00,,,0.00,meteohub,2013-08-04 07:28:00,
2013-08-04 03:33:00,76.3,74.7,29.87,West,269,3.0,5.0,95,0.00,,,0.00,meteohub,2013-08-04 07:33:00,
2013-08-04 03:38:00,76.3,74.7,29.87,West,269,1.0,5.0,95,0.00,,,0.00,meteohub,2013-08-04 07:38:00,
2013-08-04 03:43:00,76.3,74.7,29.87,West,269,3.0,5.0,95,0.00,,,0.00,meteohub,2013-08-04 07:43:00,
2013-08-04 03:48:00,76.3,74.7,29.87,WSW,246,3.0,5.0,95,0.00,,,0.00,meteohub,2013-08-04 07:48:00,
2013-08-04 03:53:00,76.3,74.7,29.87,West,276,4.0,6.0,95,0.00,,,0.00,meteohub,2013-08-04 07:53:00,
2013-08-04 03:58:00,76.3,74.7,29.87,West,277,5.0,7.0,95,0.00,,,0.00,meteohub,2013-08-04 07:58:00,
2013-08-04 04:03:00,76.3,75.0,29.87,West,260,4.0,7.0,96,0.00,,,0.00,meteohub,2013-08-04 08:03:00,
2013-08-04 04:08:00,75.9,74.3,29.88,West,260,3.0,7.0,95,0.00,,,0.00,meteohub,2013-08-04 08:08:00,
2013-08-04 04:13:00,75.9,74.7,29.87,West,260,0.0,7.0,96,0.00,,,0.00,meteohub,2013-08-04 08:13:00,
2013-08-04 04:18:00,75.9,74.7,29.87,West,260,0.0,6.0,96,0.00,,,0.00,meteohub,2013-08-04 08:18:00,
2013-08-04 04:23:00,75.7,74.5,29.87,West,260,2.0,6.0,96,0.00,,,0.00,meteohub,2013-08-04 08:23:00,
2013-08-04 04:28:00,75.7,74.5,29.87,West,260,5.0,6.0,96,0.00,,,0.00,meteohub,2013-08-04 08:28:00,
2013-08-04 04:33:00,75.7,74.5,29.87,West,259,2.0,5.0,96,0.00,,,0.00,meteohub,2013-08-04 08:33:00,
2013-08-04 04:38:00,75.7,74.5,29.87,WSW,250,4.0,6.0,96,0.00,,,0.00,meteohub,2013-08-04 08:38:00,
2013-08-04 04:43:00,75.7,74.5,29.87,West,267,0.0,6.0,96,0.00,,,0.00,meteohub,2013-08-04 08:43:00,
2013-08-04 04:48:00,75.6,74.3,29.87,WSW,250,3.0,6.0,96,0.00,,,0.00,meteohub,2013-08-04 08:48:00,
2013-08-04 04:53:00,75.6,74.3,29.87,WSW,250,1.0,6.0,96,0.00,,,0.00,meteohub,2013-08-04 08:53:00,
2013-08-04 04:58:00,75.6,74.3,29.87,WSW,250,0.0,5.0,96,0.00,,,0.00,meteohub,2013-08-04 08:58:00,
2013-08-04 05:03:00,75.6,74.3,29.87,WSW,250,3.0,5.0,96,0.00,,,0.00,meteohub,2013-08-04 09:03:00,
2013-08-04 05:08:00,75.6,74.3,29.87,WSW,250,2.0,5.0,96,0.00,,,0.00,meteohub,2013-08-04 09:08:00,
2013-08-04 05:13:00,75.4,74.1,29.87,WSW,250,5.0,5.0,96,0.00,,,0.00,meteohub,2013-08-04 09:13:00,
2013-08-04 05:18:00,75.4,74.1,29.87,WSW,250,2.0,5.0,96,0.00,,,0.00,meteohub,2013-08-04 09:18:00,
2013-08-04 05:23:00,75.4,74.1,29.87,WSW,250,2.0,5.0,96,0.00,,,0.00,meteohub,2013-08-04 09:23:00,
2013-08-04 05:28:00,75.4,74.5,29.87,WSW,250,3.0,5.0,97,0.00,,,0.00,meteohub,2013-08-04 09:28:00,
2013-08-04 05:33:00,75.2,74.3,29.87,WSW,250,0.0,5.0,97,0.00,,,0.00,meteohub,2013-08-04 09:33:00,
2013-08-04 05:38:00,75.2,74.3,29.87,WSW,250,0.0,4.0,97,0.00,,,0.00,meteohub,2013-08-04 09:38:00,
2013-08-04 05:43:00,75.0,74.1,29.87,WSW,250,0.0,3.0,97,0.00,,,0.00,meteohub,2013-08-04 09:43:00,
2013-08-04 05:48:00,75.0,74.1,29.88,WSW,250,1.0,3.0,97,0.00,,,0.00,meteohub,2013-08-04 09:48:00,
2013-08-04 05:53:00,75.0,74.1,29.88,WSW,250,0.0,5.0,97,0.00,,,0.00,meteohub,2013-08-04 09:53:00,
2013-08-04 05:58:00,75.0,74.1,29.88,WSW,250,1.0,5.0,97,0.00,,,0.00,meteohub,2013-08-04 09:58:00,
2013-08-04 06:03:00,75.0,74.1,29.88,WSW,250,0.0,5.0,97,0.00,,,0.00,meteohub,2013-08-04 10:03:00,
2013-08-04 06:08:00,74.8,73.6,29.88,WSW,250,0.0,5.0,96,0.00,,,0.00,meteohub,2013-08-04 10:08:00,
2013-08-04 06:13:00,74.8,73.6,29.88,WSW,250,0.0,4.0,96,0.00,,,0.00,meteohub,2013-08-04 10:13:00,
2013-08-04 06:18:00,74.8,73.6,29.88,WSW,250,0.0,4.0,96,0.00,,,0.00,meteohub,2013-08-04 10:18:00,
2013-08-04 06:23:00,74.8,73.9,29.88,WSW,250,0.0,4.0,97,0.00,,,0.00,meteohub,2013-08-04 10:23:00,
2013-08-04 06:28:00,74.8,73.9,29.88,WSW,250,0.0,4.0,97,0.00,,,0.00,meteohub,2013-08-04 10:28:00,
2013-08-04 06:33:00,74.8,73.9,29.89,WSW,250,0.0,4.0,97,0.00,,,0.00,meteohub,2013-08-04 10:33:00,
2013-08-04 06:39:00,74.8,73.9,29.89,WSW,250,0.0,0.0,97,0.00,,,0.00,meteohub,2013-08-04 10:39:00,
2013-08-04 06:43:00,74.8,73.9,29.89,WSW,250,0.0,0.0,97,0.00,,,0.00,meteohub,2013-08-04 10:43:00,
2013-08-04 06:48:00,74.8,73.9,29.89,WSW,250,0.0,0.0,97,0.00,,,0.00,meteohub,2013-08-04 10:48:00,
2013-08-04 06:54:00,74.8,73.9,29.89,WSW,250,0.0,0.0,97,0.00,,,0.00,meteohub,2013-08-04 10:54:00,
2013-08-04 06:58:00,74.8,73.9,29.89,WSW,250,0.0,2.0,97,0.00,,,0.00,meteohub,2013-08-04 10:58:00,
2013-08-04 07:03:00,74.8,73.9,29.89,WSW,250,0.0,2.0,97,0.00,,,0.00,meteohub,2013-08-04 11:03:00,
2013-08-04 07:09:00,74.8,73.6,29.90,WSW,250,0.0,0.0,96,0.00,,,0.00,meteohub,2013-08-04 11:09:00,
2013-08-04 07:13:00,75.0,74.1,29.90,WSW,250,0.0,0.0,97,0.00,,,0.00,meteohub,2013-08-04 11:13:00,
2013-08-04 07:18:00,75.2,74.3,29.90,WSW,250,0.0,0.0,97,0.00,,,0.00,meteohub,2013-08-04 11:18:00,
2013-08-04 07:24:00,75.4,74.1,29.90,WSW,250,0.0,3.0,96,0.00,,,0.00,meteohub,2013-08-04 11:24:00,
2013-08-04 07:29:00,75.7,74.5,29.90,WSW,250,2.0,3.0,96,0.00,,,0.00,meteohub,2013-08-04 11:29:00,
2013-08-04 07:33:00,75.7,74.5,29.90,WSW,250,3.0,4.0,96,0.00,,,0.00,meteohub,2013-08-04 11:33:00,
2013-08-04 07:39:00,75.9,74.3,29.90,West,279,1.0,4.0,95,0.00,,,0.00,meteohub,2013-08-04 11:39:00,
2013-08-04 07:44:00,76.1,74.5,29.91,West,280,3.0,6.0,95,0.00,,,0.00,meteohub,2013-08-04 11:44:00,
2013-08-04 07:49:00,76.5,74.8,29.91,WSW,250,3.0,6.0,95,0.00,,,0.00,meteohub,2013-08-04 11:49:00,
2013-08-04 07:54:00,76.5,74.7,29.91,WSW,250,1.0,6.0,94,0.00,,,0.00,meteohub,2013-08-04 11:54:00,
2013-08-04 07:59:00,76.6,74.5,29.91,WSW,250,2.0,5.0,93,0.00,,,0.00,meteohub,2013-08-04 11:59:00,
2013-08-04 08:04:00,77.0,74.8,29.91,WSW,250,2.0,5.0,93,0.00,,,0.00,meteohub,2013-08-04 12:04:00,
2013-08-04 08:09:00,77.4,74.8,29.91,WSW,250,2.0,5.0,92,0.00,,,0.00,meteohub,2013-08-04 12:09:00,
2013-08-04 08:14:00,77.5,75.0,29.92,WSW,250,0.0,5.0,92,0.00,,,0.00,meteohub,2013-08-04 12:14:00,
2013-08-04 08:19:00,77.9,75.0,29.91,WSW,254,5.0,5.0,91,0.00,,,0.00,meteohub,2013-08-04 12:19:00,
2013-08-04 08:24:00,78.1,75.2,29.91,WNW,282,2.0,7.0,91,0.00,,,0.00,meteohub,2013-08-04 12:24:00,
2013-08-04 08:29:00,78.3,75.4,29.92,WNW,282,0.0,7.0,91,0.00,,,0.00,meteohub,2013-08-04 12:29:00,
2013-08-04 08:34:00,78.6,75.4,29.92,West,279,3.0,7.0,90,0.00,,,0.00,meteohub,2013-08-04 12:34:00,
2013-08-04 08:38:00,79.0,75.4,29.92,West,274,1.0,6.0,89,0.00,,,0.00,meteohub,2013-08-04 12:38:00,
2013-08-04 08:44:00,79.2,75.4,29.91,SW,223,2.0,6.0,88,0.00,,,0.00,meteohub,2013-08-04 12:44:00,
2013-08-04 08:49:00,79.3,75.6,29.91,West,269,2.0,6.0,88,0.00,,,0.00,meteohub,2013-08-04 12:49:00,
2013-08-04 08:54:00,79.5,75.4,29.91,West,269,0.0,5.0,87,0.00,,,0.00,meteohub,2013-08-04 12:54:00,
2013-08-04 08:59:00,79.9,75.7,29.91,WSW,244,0.0,5.0,87,0.00,,,0.00,meteohub,2013-08-04 12:59:00,
2013-08-04 09:04:00,80.2,75.7,29.91,SW,236,2.0,5.0,86,0.00,,,0.00,meteohub,2013-08-04 13:04:00,
2013-08-04 09:09:00,80.6,76.1,29.91,SW,234,0.0,5.0,86,0.00,,,0.00,meteohub,2013-08-04 13:09:00,
2013-08-04 09:14:00,80.8,75.9,29.91,SW,225,0.0,6.0,85,0.00,,,0.00,meteohub,2013-08-04 13:14:00,
2013-08-04 09:19:00,80.8,75.6,29.91,West,267,3.0,6.0,84,0.00,,,0.00,meteohub,2013-08-04 13:19:00,
2013-08-04 09:24:00,81.0,76.1,29.91,WSW,249,4.0,6.0,85,0.00,,,0.00,meteohub,2013-08-04 13:24:00,
2013-08-04 09:29:00,81.1,76.3,29.91,WSW,250,0.0,7.0,85,0.00,,,0.00,meteohub,2013-08-04 13:29:00,
2013-08-04 09:34:00,81.3,76.1,29.91,WNW,283,1.0,7.0,84,0.00,,,0.00,meteohub,2013-08-04 13:34:00,
2013-08-04 09:39:00,81.3,76.1,29.91,WNW,283,3.0,7.0,84,0.00,,,0.00,meteohub,2013-08-04 13:39:00,
2013-08-04 09:44:00,81.7,75.9,29.91,WNW,283,0.0,5.0,83,0.00,,,0.00,meteohub,2013-08-04 13:44:00,
2013-08-04 09:49:00,82.2,76.1,29.90,WSW,255,0.0,5.0,82,0.00,,,0.00,meteohub,2013-08-04 13:49:00,
2013-08-04 09:54:00,82.4,75.9,29.91,West,269,5.0,6.0,81,0.00,,,0.00,meteohub,2013-08-04 13:54:00,
2013-08-04 09:59:00,82.6,75.7,29.91,WSW,258,0.0,6.0,80,0.00,,,0.00,meteohub,2013-08-04 13:59:00,
2013-08-04 10:04:00,82.9,76.8,29.91,WSW,258,0.0,6.0,82,0.00,,,0.00,meteohub,2013-08-04 14:04:00,
2013-08-04 10:09:00,83.5,76.3,29.91,WNW,291,3.0,6.0,79,0.00,,,0.00,meteohub,2013-08-04 14:09:00,
2013-08-04 10:14:00,83.7,76.5,29.91,WSW,258,5.0,6.0,79,0.00,,,0.00,meteohub,2013-08-04 14:14:00,
2013-08-04 10:19:00,83.8,76.6,29.91,West,267,2.0,6.0,79,0.00,,,0.00,meteohub,2013-08-04 14:19:00,
2013-08-04 10:24:00,84.2,77.4,29.90,WSW,243,3.0,6.0,80,0.00,,,0.00,meteohub,2013-08-04 14:24:00,
2013-08-04 10:29:00,84.4,77.2,29.90,West,271,3.0,6.0,79,0.00,,,0.00,meteohub,2013-08-04 14:29:00,
2013-08-04 10:34:00,84.7,77.5,29.90,WNW,294,5.0,6.0,79,0.00,,,0.00,meteohub,2013-08-04 14:34:00,
2013-08-04 10:39:00,84.7,77.2,29.90,WNW,288,0.0,6.0,78,0.00,,,0.00,meteohub,2013-08-04 14:39:00,
2013-08-04 10:44:00,84.7,77.2,29.90,WNW,284,0.0,6.0,78,0.00,,,0.00,meteohub,2013-08-04 14:44:00,
2013-08-04 10:49:00,85.1,77.0,29.90,WNW,286,5.0,6.0,77,0.00,,,0.00,meteohub,2013-08-04 14:49:00,
2013-08-04 10:54:00,85.1,77.5,29.90,SW,232,4.0,8.0,78,0.00,,,0.00,meteohub,2013-08-04 14:54:00,
2013-08-04 10:59:00,85.5,77.0,29.90,SW,224,0.0,8.0,76,0.00,,,0.00,meteohub,2013-08-04 14:59:00,
2013-08-04 11:04:00,85.6,77.2,29.90,SW,229,2.0,8.0,76,0.00,,,0.00,meteohub,2013-08-04 15:04:00,
2013-08-04 11:09:00,86.2,78.1,29.90,SW,222,0.0,7.0,77,0.00,,,0.00,meteohub,2013-08-04 15:09:00,
2013-08-04 11:14:00,86.4,76.6,29.90,West,270,2.0,7.0,73,0.00,,,0.00,meteohub,2013-08-04 15:14:00,
2013-08-04 11:19:00,86.2,77.4,29.90,West,270,2.0,8.0,75,0.00,,,0.00,meteohub,2013-08-04 15:19:00,
2013-08-04 11:24:00,86.7,77.4,29.90,WSW,248,0.0,8.0,74,0.00,,,0.00,meteohub,2013-08-04 15:24:00,
2013-08-04 11:29:00,86.7,76.1,29.89,WSW,244,4.0,8.0,71,0.00,,,0.00,meteohub,2013-08-04 15:29:00,
2013-08-04 11:34:00,86.7,77.9,29.90,West,275,0.0,8.0,75,0.00,,,0.00,meteohub,2013-08-04 15:34:00,
2013-08-04 11:39:00,86.9,77.2,29.89,WNW,286,0.0,8.0,73,0.00,,,0.00,meteohub,2013-08-04 15:39:00,
2013-08-04 11:44:00,87.3,76.3,29.89,West,276,1.0,8.0,70,0.00,,,0.00,meteohub,2013-08-04 15:44:00,
2013-08-04 11:49:00,87.3,75.9,29.89,WNW,289,2.0,8.0,69,0.00,,,0.00,meteohub,2013-08-04 15:49:00,
2013-08-04 11:54:00,87.8,76.3,29.89,WNW,289,0.0,8.0,69,0.00,,,0.00,meteohub,2013-08-04 15:54:00,
2013-08-04 11:59:00,88.5,77.0,29.89,WSW,251,3.0,8.0,69,0.00,,,0.00,meteohub,2013-08-04 15:59:00,
2013-08-04 12:04:00,88.5,75.7,29.89,South,184,0.0,8.0,66,0.00,,,0.00,meteohub,2013-08-04 16:04:00,
2013-08-04 12:09:00,88.3,75.6,29.89,SSW,208,2.0,7.0,66,0.00,,,0.00,meteohub,2013-08-04 16:09:00,
2013-08-04 12:14:00,88.3,76.5,29.88,West,259,0.0,9.0,68,0.00,,,0.00,meteohub,2013-08-04 16:14:00,
2013-08-04 12:19:00,88.7,76.3,29.88,SW,234,0.0,9.0,67,0.00,,,0.00,meteohub,2013-08-04 16:19:00,
2013-08-04 12:24:00,89.2,77.7,29.88,West,271,6.0,9.0,69,0.00,,,0.00,meteohub,2013-08-04 16:24:00,
2013-08-04 12:29:00,89.2,77.4,29.88,West,263,2.0,9.0,68,0.00,,,0.00,meteohub,2013-08-04 16:29:00,
2013-08-04 12:34:00,88.5,77.0,29.88,WNW,295,0.0,8.0,69,0.00,,,0.00,meteohub,2013-08-04 16:34:00,
2013-08-04 12:39:00,88.3,75.9,29.88,NW,313,2.0,8.0,67,0.00,,,0.00,meteohub,2013-08-04 16:39:00,
2013-08-04 12:44:00,88.2,76.3,29.88,West,263,0.0,8.0,68,0.00,,,0.00,meteohub,2013-08-04 16:44:00,
2013-08-04 12:49:00,88.2,76.3,29.88,West,263,1.0,8.0,68,0.00,,,0.00,meteohub,2013-08-04 16:49:00,
2013-08-04 12:54:00,88.5,77.0,29.88,West,267,6.0,9.0,69,0.00,,,0.00,meteohub,2013-08-04 16:54:00,
2013-08-04 12:59:00,88.5,76.1,29.88,West,259,4.0,9.0,67,0.00,,,0.00,meteohub,2013-08-04 16:59:00,
2013-08-04 13:04:00,88.3,75.6,29.88,West,280,0.0,8.0,66,0.00,,,0.00,meteohub,2013-08-04 17:04:00,
2013-08-04 13:09:00,88.9,75.2,29.88,West,275,2.0,8.0,64,0.00,,,0.00,meteohub,2013-08-04 17:09:00,
2013-08-04 13:14:00,89.2,76.5,29.88,NW,307,0.0,7.0,66,0.00,,,0.00,meteohub,2013-08-04 17:14:00,
2013-08-04 13:19:00,89.2,76.5,29.87,WSW,252,0.0,10.0,66,0.00,,,0.00,meteohub,2013-08-04 17:19:00,
2013-08-04 13:20:00,89.2,76.8,29.87,WSW,252,0.0,10.0,67,0.00,,,0.00,meteohub,2013-08-04 17:20:00,
2013-08-04 13:25:00,88.9,76.1,29.88,West,271,0.0,10.0,66,0.00,,,0.00,meteohub,2013-08-04 17:25:00,
2013-08-04 13:30:00,88.3,75.9,29.88,WSW,244,0.0,10.0,67,0.00,,,0.00,meteohub,2013-08-04 17:30:00,
2013-08-04 13:35:00,87.8,76.8,29.88,West,278,1.0,5.0,70,0.00,,,0.00,meteohub,2013-08-04 17:35:00,
2013-08-04 13:40:00,88.0,77.4,29.87,WNW,290,0.0,5.0,71,0.00,,,0.00,meteohub,2013-08-04 17:40:00,
2013-08-04 13:45:00,88.5,76.6,29.87,West,261,2.0,6.0,68,0.00,,,0.00,meteohub,2013-08-04 17:45:00,
2013-08-04 13:50:00,88.7,77.7,29.87,WSW,257,0.0,11.0,70,0.00,,,0.00,meteohub,2013-08-04 17:50:00,
2013-08-04 13:55:00,88.3,79.9,29.87,North,0,0.0,11.0,76,0.01,,,0.01,meteohub,2013-08-04 17:55:00,
2013-08-04 14:00:00,87.1,80.2,29.87,WNW,286,0.0,11.0,80,0.01,,,0.01,meteohub,2013-08-04 18:00:00,
2013-08-04 14:05:00,86.9,81.5,29.86,WNW,286,0.0,8.0,84,0.01,,,0.01,meteohub,2013-08-04 18:05:00,
2013-08-04 14:10:00,87.4,81.3,29.86,WNW,286,0.0,2.0,82,0.01,,,0.01,meteohub,2013-08-04 18:10:00,
2013-08-04 14:15:00,86.5,77.2,29.87,NW,304,8.0,0.0,74,0.01,,,0.01,meteohub,2013-08-04 18:15:00,
2013-08-04 14:20:00,82.9,77.5,29.88,West,271,7.0,11.0,84,0.12,,,0.11,meteohub,2013-08-04 18:20:00,
2013-08-04 14:25:00,79.9,76.3,29.88,West,269,0.0,11.0,89,0.12,,,0.17,meteohub,2013-08-04 18:25:00,
2013-08-04 14:30:00,79.5,77.0,29.87,West,269,0.0,12.0,92,0.19,,,0.24,meteohub,2013-08-04 18:30:00,
2013-08-04 14:35:00,80.2,78.6,29.87,West,269,0.0,12.0,95,0.24,,,0.24,meteohub,2013-08-04 18:35:00,
2013-08-04 14:40:00,80.8,79.2,29.87,West,269,0.0,12.0,95,0.24,,,0.24,meteohub,2013-08-04 18:40:00,
2013-08-04 14:45:00,81.3,79.7,29.87,WSW,238,0.0,0.0,95,0.24,,,0.24,meteohub,2013-08-04 18:45:00,
2013-08-04 14:50:00,81.9,80.2,29.87,West,259,0.0,0.0,95,0.24,,,0.24,meteohub,2013-08-04 18:50:00,
2013-08-04 14:51:00,81.9,80.2,29.87,West,259,0.0,1.0,95,0.24,,,0.24,meteohub,2013-08-04 18:51:00,
2013-08-04 14:56:00,82.8,81.1,29.88,WNW,298,0.0,5.0,95,0.23,,,0.24,meteohub,2013-08-04 18:56:00,
2013-08-04 15:01:00,82.9,81.0,29.88,WSW,251,0.0,5.0,94,0.23,,,0.24,meteohub,2013-08-04 19:01:00,
2013-08-04 15:06:00,82.8,80.2,29.88,WSW,251,0.0,5.0,92,0.23,,,0.24,meteohub,2013-08-04 19:06:00,
2013-08-04 15:11:00,82.6,80.1,29.88,WSW,251,0.0,0.0,92,0.23,,,0.24,meteohub,2013-08-04 19:11:00,
2013-08-04 15:16:00,82.2,79.3,29.88,WSW,251,0.0,0.0,91,0.23,,,0.24,meteohub,2013-08-04 19:16:00,
2013-08-04 15:21:00,82.0,79.5,29.89,WSW,251,0.0,0.0,92,0.12,,,0.24,meteohub,2013-08-04 19:21:00,
2013-08-04 15:26:00,82.0,79.2,29.89,WSW,251,0.0,0.0,91,0.05,,,0.24,meteohub,2013-08-04 19:26:00,
2013-08-04 15:31:00,82.2,79.3,29.90,WSW,251,0.0,0.0,91,0.00,,,0.24,meteohub,2013-08-04 19:31:00,
2013-08-04 15:36:00,82.6,79.3,29.89,WSW,251,0.0,0.0,90,0.00,,,0.24,meteohub,2013-08-04 19:36:00,
2013-08-04 15:41:00,83.3,79.3,29.89,West,269,0.0,4.0,88,0.00,,,0.24,meteohub,2013-08-04 19:41:00,
2013-08-04 15:46:00,83.8,78.4,29.89,West,271,0.0,4.0,84,0.00,,,0.24,meteohub,2013-08-04 19:46:00,
2013-08-04 15:51:00,83.8,78.4,29.89,West,271,0.0,4.0,84,0.00,,,0.24,meteohub,2013-08-04 19:51:00,
2013-08-04 15:56:00,83.3,76.8,29.89,WNW,287,0.0,3.0,81,0.00,,,0.24,meteohub,2013-08-04 19:56:00,
2013-08-04 16:01:00,82.9,77.5,29.90,WNW,287,0.0,3.0,84,0.00,,,0.24,meteohub,2013-08-04 20:01:00,
2013-08-04 16:06:00,82.6,76.5,29.89,NE,53,0.0,5.0,82,0.00,,,0.24,meteohub,2013-08-04 20:06:00,
2013-08-04 16:11:00,82.6,76.1,29.89,East,90,0.0,5.0,81,0.00,,,0.24,meteohub,2013-08-04 20:11:00,
2013-08-04 16:16:00,82.4,76.6,29.90,East,90,0.0,5.0,83,0.00,,,0.24,meteohub,2013-08-04 20:16:00,
2013-08-04 16:21:00,82.2,75.4,29.90,East,90,0.0,5.0,80,0.00,,,0.24,meteohub,2013-08-04 20:21:00,
2013-08-04 16:26:00,82.6,76.8,29.90,ENE,64,0.0,2.0,83,0.00,,,0.24,meteohub,2013-08-04 20:26:00,
2013-08-04 16:31:00,82.8,77.0,29.90,ENE,64,0.0,0.0,83,0.00,,,0.24,meteohub,2013-08-04 20:31:00,
2013-08-04 16:36:00,82.4,74.5,29.90,ESE,123,0.0,7.0,77,0.00,,,0.24,meteohub,2013-08-04 20:36:00,
2013-08-04 16:41:00,82.6,76.1,29.90,ESE,123,0.0,7.0,81,0.00,,,0.24,meteohub,2013-08-04 20:41:00,
2013-08-04 16:46:00,82.6,76.8,29.90,ESE,123,0.0,7.0,83,0.00,,,0.24,meteohub,2013-08-04 20:46:00,
2013-08-04 16:51:00,82.6,76.8,29.91,ENE,78,0.0,4.0,83,0.00,,,0.24,meteohub,2013-08-04 20:51:00,
2013-08-04 16:56:00,82.6,76.5,29.91,NE,51,0.0,0.0,82,0.00,,,0.24,meteohub,2013-08-04 20:56:00,
2013-08-04 17:01:00,82.4,75.6,29.91,NE,51,0.0,0.0,80,0.00,,,0.24,meteohub,2013-08-04 21:01:00,
2013-08-04 17:06:00,82.2,75.4,29.90,North,355,0.0,0.0,80,0.00,,,0.24,meteohub,2013-08-04 21:06:00,
2013-08-04 17:11:00,82.0,75.6,29.91,SE,130,0.0,0.0,81,0.00,,,0.24,meteohub,2013-08-04 21:11:00,
2013-08-04 17:17:00,82.0,75.6,29.91,ENE,58,0.0,0.0,81,0.00,,,0.24,meteohub,2013-08-04 21:17:00,
2013-08-04 17:22:00,82.6,75.7,29.91,SE,144,0.0,0.0,80,0.00,,,0.24,meteohub,2013-08-04 21:22:00,
2013-08-04 17:27:00,83.3,76.8,29.91,NE,42,0.0,0.0,81,0.00,,,0.24,meteohub,2013-08-04 21:27:00,
2013-08-04 17:32:00,83.8,76.3,29.91,NE,42,0.0,0.0,78,0.00,,,0.24,meteohub,2013-08-04 21:32:00,
2013-08-04 17:37:00,84.0,76.5,29.91,NE,42,0.0,0.0,78,0.00,,,0.24,meteohub,2013-08-04 21:37:00,
2013-08-04 17:43:00,83.8,76.6,29.91,ESE,123,0.0,0.0,79,0.00,,,0.24,meteohub,2013-08-04 21:43:00,
2013-08-04 17:48:00,83.5,75.9,29.92,NE,36,0.0,0.0,78,0.00,,,0.24,meteohub,2013-08-04 21:48:00,
2013-08-04 17:49:00,83.3,75.7,29.92,NE,36,0.0,0.0,78,0.00,,,0.24,meteohub,2013-08-04 21:49:00,
2013-08-04 17:53:00,82.8,75.2,29.92,East,84,0.0,0.0,78,0.00,,,0.24,meteohub,2013-08-04 21:53:00,
2013-08-04 17:59:00,82.4,74.8,29.92,East,84,0.0,0.0,78,0.00,,,0.24,meteohub,2013-08-04 21:59:00,
2013-08-04 18:04:00,82.4,74.8,29.92,East,84,0.0,0.0,78,0.00,,,0.24,meteohub,2013-08-04 22:04:00,
2013-08-04 18:09:00,82.8,73.6,29.92,ESE,120,0.0,0.0,74,0.00,,,0.24,meteohub,2013-08-04 22:09:00,
2013-08-04 18:14:00,82.9,73.8,29.93,East,81,0.0,0.0,74,0.00,,,0.24,meteohub,2013-08-04 22:14:00,
2013-08-04 18:19:00,82.9,73.4,29.93,East,81,0.0,0.0,73,0.00,,,0.24,meteohub,2013-08-04 22:19:00,
2013-08-04 18:24:00,82.9,73.4,29.94,East,81,0.0,0.0,73,0.00,,,0.24,meteohub,2013-08-04 22:24:00,
2013-08-04 18:29:00,82.6,73.4,29.93,East,81,0.0,0.0,74,0.00,,,0.24,meteohub,2013-08-04 22:29:00,
2013-08-04 18:34:00,82.6,73.4,29.93,ESE,109,0.0,0.0,74,0.00,,,0.24,meteohub,2013-08-04 22:34:00,
2013-08-04 18:39:00,82.2,73.0,29.94,ESE,109,0.0,0.0,74,0.00,,,0.24,meteohub,2013-08-04 22:39:00,
2013-08-04 18:44:00,81.9,73.2,29.94,ESE,109,0.0,0.0,75,0.00,,,0.24,meteohub,2013-08-04 22:44:00,
2013-08-04 18:49:00,81.9,73.6,29.94,NE,38,0.0,0.0,76,0.00,,,0.24,meteohub,2013-08-04 22:49:00,
2013-08-04 18:54:00,81.7,73.4,29.94,NE,38,0.0,0.0,76,0.00,,,0.24,meteohub,2013-08-04 22:54:00,
2013-08-04 18:59:00,81.1,72.9,29.94,NE,38,0.0,0.0,76,0.00,,,0.24,meteohub,2013-08-04 22:59:00,
2013-08-04 19:04:00,81.1,72.9,29.94,NE,38,0.0,0.0,76,0.00,,,0.24,meteohub,2013-08-04 23:04:00,
2013-08-04 19:09:00,81.0,73.4,29.94,NE,38,0.0,0.0,78,0.00,,,0.24,meteohub,2013-08-04 23:09:00,
2013-08-04 19:14:00,80.4,72.5,29.94,NE,38,0.0,0.0,77,0.00,,,0.24,meteohub,2013-08-04 23:14:00,
2013-08-04 19:19:00,80.2,72.7,29.94,NE,42,0.0,0.0,78,0.00,,,0.24,meteohub,2013-08-04 23:19:00,
2013-08-04 19:24:00,80.2,73.0,29.94,NE,42,0.0,1.0,79,0.00,,,0.24,meteohub,2013-08-04 23:24:00,
2013-08-04 19:29:00,79.5,72.9,29.94,NE,42,0.0,1.0,80,0.00,,,0.24,meteohub,2013-08-04 23:29:00,
2013-08-04 19:34:00,79.0,72.7,29.94,NE,42,0.0,1.0,81,0.00,,,0.24,meteohub,2013-08-04 23:34:00,
2013-08-04 19:39:00,78.4,72.9,29.95,NE,42,0.0,0.0,83,0.00,,,0.24,meteohub,2013-08-04 23:39:00,
2013-08-04 19:44:00,77.5,72.3,29.94,NE,42,0.0,0.0,84,0.00,,,0.24,meteohub,2013-08-04 23:44:00,
2013-08-04 19:49:00,76.8,71.6,29.95,NE,42,0.0,0.0,84,0.00,,,0.24,meteohub,2013-08-04 23:49:00,
2013-08-04 19:54:00,76.5,72.0,29.95,NE,42,0.0,0.0,86,0.00,,,0.24,meteohub,2013-08-04 23:54:00,
2013-08-04 19:59:00,75.9,71.8,29.95,NE,42,0.0,0.0,87,0.00,,,0.24,meteohub,2013-08-04 23:59:00,
2013-08-04 20:04:00,75.4,71.2,29.95,NE,42,0.0,0.0,87,0.00,,,0.24,meteohub,2013-08-05 00:04:00,
2013-08-04 20:09:00,74.8,71.4,29.95,NE,42,0.0,0.0,89,0.00,,,0.24,meteohub,2013-08-05 00:09:00,
2013-08-04 20:14:00,74.5,71.1,29.95,NE,42,0.0,0.0,89,0.00,,,0.24,meteohub,2013-08-05 00:14:00,
2013-08-04 20:19:00,73.9,70.9,29.95,NE,42,0.0,0.0,90,0.00,,,0.24,meteohub,2013-08-05 00:19:00,
2013-08-04 20:24:00,73.6,70.7,29.96,NE,42,0.0,0.0,91,0.00,,,0.24,meteohub,2013-08-05 00:24:00,
2013-08-04 20:29:00,73.2,70.5,29.96,NE,42,0.0,0.0,91,0.00,,,0.24,meteohub,2013-08-05 00:29:00,
2013-08-04 20:34:00,72.9,70.2,29.96,NE,42,0.0,0.0,91,0.00,,,0.24,meteohub,2013-08-05 00:34:00,
2013-08-04 20:39:00,72.7,70.0,29.96,NE,42,0.0,0.0,91,0.00,,,0.24,meteohub,2013-08-05 00:39:00,
2013-08-04 20:44:00,72.3,69.6,29.96,NE,42,0.0,0.0,91,0.00,,,0.24,meteohub,2013-08-05 00:44:00,
2013-08-04 20:49:00,72.1,69.6,29.96,NE,42,0.0,0.0,92,0.00,,,0.24,meteohub,2013-08-05 00:49:00,
2013-08-04 20:54:00,71.8,69.3,29.96,NE,42,0.0,0.0,92,0.00,,,0.24,meteohub,2013-08-05 00:54:00,
2013-08-04 20:59:00,71.6,69.1,29.96,NE,42,0.0,0.0,92,0.00,,,0.24,meteohub,2013-08-05 00:59:00,
2013-08-04 21:04:00,71.2,69.1,29.96,NE,42,0.0,0.0,93,0.00,,,0.24,meteohub,2013-08-05 01:04:00,
2013-08-04 21:09:00,71.2,69.1,29.96,NE,42,0.0,0.0,93,0.00,,,0.24,meteohub,2013-08-05 01:09:00,
2013-08-04 21:14:00,70.9,68.7,29.96,NE,42,0.0,0.0,93,0.00,,,0.24,meteohub,2013-08-05 01:14:00,
2013-08-04 21:19:00,70.7,68.5,29.96,NE,42,0.0,0.0,93,0.00,,,0.24,meteohub,2013-08-05 01:19:00,
2013-08-04 21:24:00,70.5,68.4,29.97,NE,42,0.0,0.0,93,0.00,,,0.24,meteohub,2013-08-05 01:24:00,
2013-08-04 21:29:00,70.2,68.0,29.97,NE,42,0.0,0.0,93,0.00,,,0.24,meteohub,2013-08-05 01:29:00,
2013-08-04 21:34:00,70.0,67.8,29.97,NE,42,0.0,0.0,93,0.00,,,0.24,meteohub,2013-08-05 01:34:00,
2013-08-04 21:39:00,69.8,67.6,29.98,NE,42,0.0,0.0,93,0.00,,,0.24,meteohub,2013-08-05 01:39:00,
2013-08-04 21:44:00,69.6,67.5,29.98,NE,42,0.0,0.0,93,0.00,,,0.24,meteohub,2013-08-05 01:44:00,
2013-08-04 21:49:00,69.4,67.6,29.98,NE,42,0.0,0.0,94,0.00,,,0.24,meteohub,2013-08-05 01:49:00,
2013-08-04 21:54:00,69.3,67.5,29.99,NE,42,0.0,0.0,94,0.00,,,0.24,meteohub,2013-08-05 01:54:00,
2013-08-04 21:59:00,69.1,67.3,29.99,NE,42,0.0,0.0,94,0.00,,,0.24,meteohub,2013-08-05 01:59:00,
2013-08-04 22:04:00,68.9,67.1,29.99,NE,42,0.0,0.0,94,0.00,,,0.24,meteohub,2013-08-05 02:04:00,
2013-08-04 22:09:00,68.7,66.9,29.99,NE,42,0.0,0.0,94,0.00,,,0.24,meteohub,2013-08-05 02:09:00,
2013-08-04 22:14:00,68.5,66.7,29.99,NE,42,0.0,0.0,94,0.00,,,0.24,meteohub,2013-08-05 02:14:00,
2013-08-04 22:19:00,68.5,66.7,29.99,NE,42,0.0,0.0,94,0.00,,,0.24,meteohub,2013-08-05 02:19:00,
2013-08-04 22:25:00,68.5,67.1,29.99,NE,42,0.0,0.0,95,0.00,,,0.24,meteohub,2013-08-05 02:25:00,
2013-08-04 22:29:00,68.5,67.1,29.99,NE,42,0.0,0.0,95,0.00,,,0.24,meteohub,2013-08-05 02:29:00,
2013-08-04 22:34:00,68.4,66.9,29.99,NE,42,0.0,0.0,95,0.00,,,0.24,meteohub,2013-08-05 02:34:00,
2013-08-04 22:40:00,68.2,66.7,29.99,NE,42,0.0,0.0,95,0.00,,,0.24,meteohub,2013-08-05 02:40:00,
2013-08-04 22:44:00,67.8,66.4,29.99,NE,42,0.0,0.0,95,0.00,,,0.24,meteohub,2013-08-05 02:44:00,
2013-08-04 22:49:00,67.6,66.2,29.99,NE,42,0.0,0.0,95,0.00,,,0.24,meteohub,2013-08-05 02:49:00,
2013-08-04 22:55:00,67.5,66.0,30.00,NE,42,0.0,0.0,95,0.00,,,0.24,meteohub,2013-08-05 02:55:00,
2013-08-04 23:00:00,67.3,65.8,29.99,NE,42,0.0,0.0,95,0.00,,,0.24,meteohub,2013-08-05 03:00:00,
2013-08-04 23:04:00,66.9,65.5,30.00,NE,42,0.0,0.0,95,0.00,,,0.24,meteohub,2013-08-05 03:04:00,
2013-08-04 23:10:00,66.9,65.5,30.00,NE,42,0.0,0.0,95,0.00,,,0.24,meteohub,2013-08-05 03:10:00,
2013-08-04 23:15:00,66.7,65.3,30.00,NE,42,0.0,0.0,95,0.00,,,0.24,meteohub,2013-08-05 03:15:00,
2013-08-04 23:20:00,66.6,65.1,30.00,NE,42,0.0,0.0,95,0.00,,,0.24,meteohub,2013-08-05 03:20:00,
2013-08-04 23:25:00,66.6,65.3,30.00,NE,42,0.0,0.0,96,0.00,,,0.24,meteohub,2013-08-05 03:25:00,
2013-08-04 23:30:00,66.6,65.3,30.00,NE,42,0.0,0.0,96,0.00,,,0.24,meteohub,2013-08-05 03:30:00,
2013-08-04 23:34:00,66.6,65.3,30.00,NE,42,0.0,0.0,96,0.00,,,0.24,meteohub,2013-08-05 03:34:00,
2013-08-04 23:40:00,66.6,65.3,30.00,NE,42,0.0,0.0,96,0.00,,,0.24,meteohub,2013-08-05 03:40:00,
2013-08-04 23:45:00,66.6,65.3,30.00,NE,42,0.0,0.0,96,0.00,,,0.24,meteohub,2013-08-05 03:45:00,
2013-08-04 23:50:00,66.4,65.1,30.00,NE,42,0.0,0.0,96,0.00,,,0.24,meteohub,2013-08-05 03:50:00,
2013-08-04 23:55:00,66.2,64.9,30.00,NE,42,0.0,0.0,96,0.00,,,0.24,meteohub,2013-08-05 03:55:00,